Temp
85 96 101 96 85 88 81 80 85 83 86 92 93 90 89 91 86 80 94 97 99 99 93 88 80 80 80 80 80 80 80 80 80 80 80 80 80 80 80 80 80 81 82 82 82 82 81 81 81
101 96 98 96 84 81 80 87 83 88 91 94 93 92 89 87 94 91 93 95 98 98 93 92 79 80 80 80 80 79 79 79 80 80 80 80 80 80 80 80 80 81 82 82 82 81 81 81 81
97 98 95 90 88 80 80 87 90 92 93 93 91 95 93 89 92 95 96 96 99 97 96 91 80 80 80 80 79 79 79 79 80 80 80 80 80 80 80 80 80 81 82 82 82 81 81 81 81
101 100 97 85 81 85 85 89 92 92 94 96 95 90 95 95 94 97 97 98 99 99 98 83 79 80 80 80 79 79 79 79 80 80 80 80 80 79 79 80 80 81 81 82 81 81 81 80 80
102 98 85 82 82 86 91 93 94 93 92 94 94 90 91 94 95 95 95 98 98 100 99 90 79 79 80 80 79 79 79 79 79 80 80 80 79 79 79 79 80 81 81 81 81 80 80 80 79
93 95 81 79 82 87 92 95 96 94 94 93 92 90 93 95 94 94 98 98 101 99 98 93 81 79 79 80 79 79 79 79 79 79 79 79 79 79 79 79 80 80 80 80 80 80 79 79 79
89 88 82 81 81 84 88 97 94 93 95 93 96 90 94 94 96 97 98 99 99 99 98 95 91 85 79 79 79 79 78 78 79 79 79 79 79 79 79 79 79 79 79 79 79 79 79 79 79
92 89 82 84 81 82 91 95 98 95 93 98 98 92 93 97 96 98 99 98 99 99 99 97 94 94 92 91 79 79 79 79 78 79 79 79 79 79 79 78 78 79 79 79 79 79 79 79 78
94 83 80 83 81 86 95 92 99 101 97 99 100 97 97 97 97 97 96 96 97 97 99 99 99 98 96 98 90 80 79 79 79 80 79 79 90 91 89 85 80 79 79 79 79 79 79 79 78
88 83 83 89 90 89 93 93 95 94 95 96 97 97 94 95 94 96 95 94 95 95 98 100 99 99 98 98 95 91 92 91 90 91 89 89 92 93 92 88 79 79 78 79 79 78 78 79 93
88 82 88 89 91 93 92 93 97 93 92 96 96 100 94 94 94 97 98 98 97 99 98 100 97 95 98 98 96 95 95 94 92 90 90 91 93 92 92 92 91 88 82 90 85 87 88 93 95
83 87 88 90 92 91 90 95 92 96 97 102 102 103 98 94 95 98 99 99 100 99 98 99 98 93 93 97 95 96 95 94 93 93 89 88 89 90 91 93 94 92 94 92 92 94 92 92 91
84 86 89 92 93 93 93 91 92 94 101 104 104 100 98 97 97 99 101 102 101 99 98 98 96 92 91 88 94 94 94 94 94 93 91 91 91 89 91 91 93 93 94 92 92 91 91 89 89
88 88 89 92 92 92 89 92 90 97 100 99 100 100 101 100 98 98 97 98 97 97 98 98 96 92 92 89 89 93 93 94 94 94 93 89 90 89 91 90 91 91 92 89 89 87 82 79 84
89 83 89 89 91 90 91 88 88 97 98 96 98 99 99 99 99 97 98 96 97 97 95 94 94 94 89 90 89 90 93 95 93 94 91 90 89 88 87 90 90 91 87 80 79 75 71 71 73
84 85 81 88 89 89 90 82 92 97 95 94 96 98 97 97 98 98 99 98 97 97 93 92 96 96 90 89 91 92 93 93 94 94 93 91 89 87 86 86 87 80 77 73 69 68 66 65 68
83 78 77 81 89 88 87 83 91 95 94 93 95 97 98 99 99 97 98 99 98 96 95 93 91 95 94 88 91 91 91 91 93 94 94 91 91 91 86 85 84 75 76 68 66 65 66 66 69
74 77 79 78 85 87 85 84 91 93 93 92 94 96 97 98 100 102 99 97 99 97 94 93 93 90 91 92 89 92 92 92 93 93 93 92 92 91 89 86 74 74 68 66 67 65 66 64 70
78 77 75 81 85 82 83 84 88 91 92 92 93 93 94 95 99 99 98 99 94 96 93 91 90 89 89 90 90 85 90 92 92 93 91 91 85 87 84 84 72 73 70 67 65 65 66 65 68
78 76 77 82 84 82 82 82 88 90 91 92 91 91 91 92 94 93 93 93 93 91 92 90 88 88 87 90 89 77 83 95 94 90 81 81 78 84 83 77 72 71 68 67 65 64 62 64 63
79 77 76 76 82 84 81 80 84 88 92 92 93 92 91 91 91 92 92 91 93 90 90 91 89 87 87 86 89 80 77 80 80 89 92 89 83 80 74 74 73 69 67 65 63 63 63 62 61
75 82 79 77 77 73 82 70 79 84 86 88 89 90 90 91 93 93 93 91 90 91 92 90 88 87 86 86 86 84 76 85 90 90 87 82 78 76 75 73 71 69 69 66 63 68 67 65 61
78 82 79 78 78 76 76 75 77 82 79 83 86 88 89 93 92 91 93 93 93 89 88 87 85 86 86 86 84 87 84 88 91 88 83 82 79 78 75 70 72 69 70 65 66 65 63 61 62
82 80 80 79 79 69 72 73 72 76 77 81 85 87 88 91 93 92 93 93 91 94 91 83 83 82 84 84 83 82 81 82 85 85 86 83 75 73 72 70 68 68 65 64 62 60 60 62 70
82 78 72 68 71 66 74 72 70 78 81 82 82 85 87 90 91 91 89 91 90 88 87 89 85 82 82 83 83 83 82 82 81 82 81 74 68 68 67 68 66 63 62 62 60 61 69 70 71
78 77 68 55 62 68 75 67 71 81 84 85 86 86 86 87 89 88 88 88 90 89 88 89 87 83 84 83 83 83 83 87 81 74 73 73 71 70 70 65 62 61 61 61 62 65 73 72 72
76 73 77 68 70 67 75 73 78 81 80 82 82 83 82 84 85 86 86 85 85 87 84 84 81 81 82 83 82 80 79 77 76 73 73 70 67 64 62 61 60 60 61 62 67 74 72 72 71
79 79 69 73 57 56 68 69 73 71 72 77 78 79 80 83 85 84 85 81 82 86 79 79 83 82 81 81 82 82 77 75 74 73 67 65 63 62 61 60 59 60 61 68 71 73 72 71 72
77 78 73 71 68 59 59 68 71 69 72 72 77 78 80 82 84 84 84 83 82 76 73 72 76 81 79 81 80 79 76 75 73 71 66 62 61 62 59 58 59 61 68 70 71 71 72 71 70
77 72 70 65 62 68 64 65 72 72 74 75 76 78 80 82 83 84 84 82 80 80 74 68 67 68 70 79 78 76 75 74 72 70 69 68 63 61 60 61 64 69 73 72 70 71 72 71 70
MSLP
1011.81 1011.12 1010.49 1009.50 1007.46 1004.82 1004.24 1005.03 1005.73 1005.19 1004.90 1005.20 1005.22 1005.14 1005.14 1005.20 1005.31 1006.29 1008.09 1008.47 1008.59 1009.25 1011.02 1012.31 1013.14 1013.46 1013.93 1014.26 1014.44 1014.61 1014.88 1015.16 1015.41 1015.62 1015.81 1015.94 1016.05 1016.38 1016.56 1016.83 1016.99 1017.06 1017.21 1017.41 1017.44 1017.53 1017.64 1017.59 1017.64
1010.69 1010.57 1009.68 1007.45 1005.16 1002.94 1003.87 1004.62 1004.60 1004.63 1004.97 1005.22 1005.25 1005.04 1005.13 1004.94 1005.97 1007.03 1007.81 1008.80 1008.94 1009.49 1010.99 1011.92 1013.13 1013.59 1013.97 1014.36 1014.65 1014.67 1014.90 1015.22 1015.49 1015.72 1015.94 1016.14 1016.20 1016.48 1016.76 1016.95 1017.11 1017.17 1017.33 1017.45 1017.55 1017.71 1017.69 1017.75 1017.82
1010.68 1010.09 1007.87 1006.12 1004.56 1003.35 1003.93 1004.45 1004.41 1004.42 1004.88 1004.86 1004.68 1005.04 1005.00 1005.29 1006.46 1006.79 1007.93 1008.73 1009.00 1009.84 1010.92 1011.86 1013.22 1013.65 1013.99 1014.35 1014.67 1014.77 1014.98 1015.18 1015.47 1015.74 1016.00 1016.20 1016.30 1016.58 1016.73 1017.00 1017.13 1017.24 1017.44 1017.47 1017.73 1017.85 1017.87 1017.92 1017.96
1009.65 1008.61 1007.60 1005.69 1004.10 1004.62 1004.57 1004.59 1004.50 1003.99 1004.38 1004.53 1004.46 1004.40 1005.42 1006.45 1006.65 1007.24 1008.25 1008.75 1009.04 1009.75 1010.64 1012.53 1013.28 1013.67 1013.99 1014.32 1014.66 1014.79 1015.10 1015.34 1015.58 1015.82 1016.05 1016.27 1016.43 1016.63 1016.82 1017.03 1017.23 1017.25 1017.50 1017.61 1017.73 1017.99 1018.04 1018.06 1018.09
1009.27 1007.63 1006.08 1005.13 1004.51 1004.68 1004.56 1004.61 1004.27 1003.63 1003.85 1003.85 1004.41 1004.21 1005.10 1006.60 1007.46 1007.99 1008.48 1008.81 1009.10 1009.59 1010.47 1012.38 1013.34 1013.68 1013.98 1014.29 1014.73 1015.01 1015.20 1015.46 1015.69 1015.83 1016.10 1016.29 1016.53 1016.73 1016.90 1017.04 1017.26 1017.33 1017.52 1017.68 1017.73 1017.91 1018.01 1017.99 1018.06
1008.02 1007.36 1005.78 1004.56 1004.42 1004.57 1004.43 1004.48 1003.97 1003.75 1003.65 1004.01 1004.15 1004.51 1004.93 1006.88 1007.40 1008.25 1008.62 1008.81 1009.11 1009.70 1010.50 1011.93 1013.47 1013.75 1013.93 1014.24 1014.66 1014.98 1015.21 1015.45 1015.66 1015.87 1016.04 1016.32 1016.52 1016.70 1016.91 1017.08 1017.30 1017.40 1017.61 1017.64 1017.66 1017.77 1017.89 1017.94 1017.95
1007.91 1006.59 1005.46 1005.08 1004.77 1004.69 1004.61 1004.61 1004.15 1003.94 1003.24 1003.46 1004.17 1004.10 1005.06 1006.39 1007.31 1008.04 1008.55 1008.98 1009.33 1009.89 1010.53 1011.63 1012.69 1013.56 1014.09 1014.36 1014.65 1014.95 1015.19 1015.44 1015.66 1015.90 1016.06 1016.34 1016.54 1016.68 1016.87 1017.07 1017.29 1017.45 1017.53 1017.60 1017.60 1017.64 1017.70 1017.73 1017.74
1008.27 1007.07 1005.84 1005.40 1004.81 1004.50 1004.84 1004.58 1004.06 1003.89 1003.40 1004.15 1004.30 1003.39 1004.13 1005.88 1007.36 1007.77 1008.29 1009.02 1009.31 1009.84 1010.33 1011.02 1011.91 1012.63 1013.19 1013.65 1014.44 1014.87 1015.16 1015.44 1015.69 1015.88 1016.07 1016.31 1016.52 1016.70 1016.91 1017.03 1017.11 1017.26 1017.27 1017.29 1017.37 1017.44 1017.53 1017.52 1017.50
1008.58 1007.14 1005.53 1004.93 1005.28 1004.48 1004.54 1004.36 1004.15 1004.20 1003.77 1003.35 1003.67 1004.27 1005.20 1006.41 1007.10 1007.44 1007.92 1008.54 1009.04 1009.63 1010.04 1010.52 1011.07 1011.56 1012.20 1012.30 1013.56 1014.72 1015.08 1015.36 1015.61 1015.73 1016.01 1016.20 1015.68 1015.71 1016.02 1016.18 1016.54 1016.82 1017.00 1017.14 1017.21 1017.26 1017.26 1017.17 1017.05
1007.86 1006.52 1005.51 1005.48 1005.77 1005.33 1004.99 1004.69 1004.36 1004.11 1003.28 1003.02 1003.40 1004.68 1005.88 1006.49 1006.73 1006.70 1007.11 1007.71 1008.39 1009.08 1009.55 1010.09 1010.57 1010.94 1011.50 1011.89 1012.49 1013.65 1013.85 1014.33 1014.60 1014.73 1014.93 1015.32 1014.96 1014.98 1015.03 1015.34 1016.20 1016.58 1016.74 1016.81 1016.86 1016.90 1016.87 1016.80 1015.42
1007.46 1006.54 1006.09 1006.33 1006.07 1005.78 1005.26 1004.83 1004.33 1003.99 1002.92 1002.67 1003.02 1003.22 1005.12 1005.89 1006.22 1006.06 1006.48 1006.93 1007.59 1008.32 1009.02 1009.63 1010.40 1010.98 1011.20 1011.60 1012.14 1012.49 1012.96 1013.38 1013.82 1014.26 1014.47 1014.56 1014.39 1014.73 1014.96 1014.95 1015.11 1015.70 1016.06 1015.55 1015.81 1015.78 1015.75 1014.87 1014.33
1007.27 1006.93 1006.76 1006.22 1005.98 1005.90 1005.32 1005.02 1004.42 1003.69 1002.97 1002.99 1003.08 1003.31 1004.30 1005.07 1005.35 1005.43 1005.80 1006.33 1007.00 1007.78 1008.54 1009.36 1009.95 1010.95 1011.51 1011.37 1011.93 1012.02 1012.29 1012.79 1013.12 1013.50 1014.18 1014.40 1014.50 1014.30 1014.40 1014.11 1014.11 1014.41 1014.21 1014.30 1014.43 1014.16 1014.40 1014.57 1014.71
1007.27 1006.71 1006.53 1006.22 1005.82 1005.63 1005.42 1004.95 1004.23 1003.53 1003.05 1002.94 1002.84 1003.35 1003.74 1004.35 1004.65 1005.07 1005.44 1005.99 1006.68 1007.40 1008.18 1009.01 1009.82 1010.67 1011.28 1011.92 1011.49 1011.79 1012.03 1012.29 1012.54 1013.05 1013.52 1013.89 1013.91 1014.03 1014.06 1014.03 1013.93 1013.61 1013.55 1013.78 1013.77 1013.98 1014.03 1014.28 1014.49
1007.17 1006.79 1006.23 1005.86 1005.40 1005.21 1005.04 1004.18 1004.15 1002.79 1003.12 1002.84 1002.67 1002.87 1003.26 1003.63 1004.29 1004.78 1005.36 1005.80 1006.64 1007.28 1007.78 1008.62 1009.44 1010.35 1010.99 1011.33 1011.52 1011.49 1011.80 1011.85 1012.20 1012.35 1012.76 1013.49 1013.54 1013.56 1013.46 1013.57 1013.52 1013.43 1013.39 1013.71 1013.90 1013.84 1015.06 1015.39 1014.77
1007.17 1006.55 1005.30 1005.39 1005.12 1004.75 1005.01 1003.71 1003.22 1003.19 1002.89 1002.50 1002.33 1002.50 1002.96 1003.30 1004.02 1004.59 1004.96 1005.51 1006.23 1006.98 1007.71 1008.33 1008.97 1009.64 1010.44 1010.65 1011.07 1011.32 1011.22 1011.40 1011.58 1011.78 1012.24 1012.62 1012.86 1013.07 1013.21 1013.03 1013.03 1012.93 1013.81 1014.61 1014.59 1015.61 1015.77 1016.10 1016.02
1006.61 1005.94 1004.29 1004.91 1004.92 1005.02 1004.49 1002.57 1003.01 1003.24 1002.87 1002.48 1002.33 1002.33 1002.76 1003.15 1003.64 1004.22 1004.65 1005.20 1005.76 1006.29 1006.95 1007.93 1008.30 1008.65 1009.51 1009.98 1010.28 1010.47 1010.42 1010.74 1010.85 1011.07 1011.34 1011.72 1012.03 1012.38 1012.64 1012.81 1012.91 1014.10 1015.34 1016.07 1016.16 1016.12 1016.35 1016.49 1016.50
1005.83 1004.67 1004.79 1004.74 1005.14 1004.89 1004.32 1003.23 1003.57 1003.43 1003.01 1002.68 1002.36 1002.21 1002.26 1002.48 1002.85 1003.70 1004.39 1004.68 1005.13 1005.74 1006.16 1006.84 1007.53 1007.74 1008.38 1009.44 1009.69 1009.91 1009.95 1010.10 1010.08 1010.22 1010.38 1010.59 1010.90 1011.27 1011.87 1012.30 1012.90 1014.26 1014.66 1014.91 1015.33 1015.51 1016.19 1016.81 1016.35
1005.77 1005.33 1005.21 1004.99 1005.10 1004.71 1003.87 1003.58 1003.35 1003.41 1002.97 1002.73 1002.55 1002.48 1002.41 1002.33 1002.21 1002.78 1003.66 1004.60 1004.63 1005.18 1005.81 1006.37 1006.97 1007.79 1008.35 1008.87 1009.43 1009.06 1008.93 1009.22 1008.97 1009.00 1009.00 1009.31 1009.65 1010.16 1010.57 1011.24 1012.13 1013.01 1013.37 1014.02 1015.30 1015.37 1015.86 1015.64 1015.76
1006.87 1006.27 1005.66 1005.36 1005.62 1005.11 1004.08 1003.58 1003.57 1003.45 1003.11 1002.98 1002.91 1002.93 1002.89 1002.74 1002.87 1003.33 1003.58 1003.55 1004.51 1004.69 1005.34 1006.23 1006.71 1007.41 1008.17 1008.23 1008.13 1008.36 1008.85 1008.23 1008.10 1007.90 1008.29 1009.44 1010.42 1010.39 1010.00 1010.16 1011.43 1012.18 1013.31 1014.23 1014.81 1015.36 1015.45 1015.48 1014.95
1006.96 1006.16 1005.44 1005.35 1005.67 1005.35 1004.43 1003.74 1003.70 1003.71 1003.45 1003.52 1003.58 1003.59 1003.54 1003.22 1003.10 1003.27 1003.42 1003.59 1003.90 1004.81 1005.17 1005.77 1006.44 1006.93 1007.24 1007.14 1007.55 1008.77 1009.85 1008.98 1008.60 1008.25 1009.19 1008.97 1010.70 1009.85 1010.70 1010.39 1010.74 1011.88 1013.11 1014.25 1014.75 1015.08 1014.12 1014.11 1014.93
1006.54 1006.17 1006.03 1005.84 1005.45 1005.14 1004.64 1003.86 1003.66 1003.92 1003.74 1004.10 1004.26 1004.31 1004.21 1003.70 1003.38 1003.40 1003.20 1003.53 1003.70 1004.32 1005.02 1005.28 1005.63 1006.32 1007.02 1007.43 1007.87 1009.04 1009.41 1009.48 1009.69 1008.33 1008.25 1008.93 1010.06 1010.67 1011.35 1011.79 1011.50 1011.30 1011.86 1012.33 1013.53 1014.16 1014.36 1014.07 1014.51
1006.01 1006.60 1006.46 1005.94 1005.21 1004.15 1004.49 1003.13 1004.18 1004.33 1004.46 1004.72 1004.90 1004.87 1004.57 1004.14 1003.75 1003.71 1003.77 1003.91 1004.22 1004.43 1004.56 1005.28 1005.87 1006.11 1006.56 1006.97 1007.19 1008.04 1008.87 1008.01 1007.80 1007.52 1008.15 1008.83 1009.10 1009.45 1009.89 1010.58 1011.21 1010.52 1011.82 1011.86 1012.33 1012.57 1013.79 1013.48 1013.79
1006.57 1006.93 1006.52 1006.13 1005.35 1004.83 1004.66 1003.71 1004.59 1005.49 1005.35 1005.50 1005.63 1005.55 1005.39 1004.91 1004.81 1004.79 1004.29 1004.40 1004.53 1005.03 1005.05 1005.17 1005.72 1005.98 1006.31 1006.58 1007.05 1006.85 1007.14 1007.10 1007.06 1007.22 1007.25 1007.34 1007.72 1008.17 1009.02 1009.73 1010.37 1011.63 1011.58 1012.17 1011.82 1012.34 1013.40 1013.06 1013.26
1007.15 1006.75 1006.22 1006.10 1005.28 1004.47 1005.44 1005.03 1005.64 1006.33 1006.86 1006.62 1006.56 1006.40 1006.26 1005.74 1005.50 1005.53 1005.39 1005.30 1005.30 1005.15 1005.18 1005.56 1005.49 1006.51 1006.37 1006.65 1006.75 1006.69 1006.90 1007.00 1006.66 1006.54 1006.59 1006.78 1007.28 1007.57 1007.49 1008.17 1008.83 1010.07 1010.98 1011.64 1011.73 1012.45 1012.63 1012.66 1012.24
1006.77 1005.96 1004.90 1004.81 1004.53 1004.78 1006.02 1005.81 1007.16 1007.54 1007.70 1007.71 1007.54 1007.29 1007.19 1006.71 1006.35 1006.09 1006.09 1005.96 1005.89 1006.05 1006.00 1005.90 1006.67 1006.58 1006.66 1006.46 1006.47 1006.74 1007.00 1007.27 1007.44 1007.19 1007.33 1007.87 1008.06 1008.21 1008.25 1008.07 1008.59 1009.59 1010.32 1010.98 1011.34 1011.72 1011.78 1012.07 1011.93
1006.78 1006.70 1006.26 1005.96 1005.46 1005.25 1006.11 1005.99 1007.66 1008.24 1008.47 1008.38 1008.33 1008.31 1008.22 1007.74 1007.61 1007.35 1007.27 1007.11 1006.75 1006.61 1006.55 1006.51 1006.78 1007.16 1006.87 1007.00 1006.63 1006.86 1007.23 1007.27 1007.90 1008.24 1008.37 1008.13 1007.96 1007.74 1007.92 1008.02 1009.08 1009.42 1010.55 1010.96 1011.29 1011.73 1011.52 1011.59 1011.81
1007.10 1007.09 1008.14 1007.55 1007.15 1006.46 1005.81 1007.15 1007.92 1008.70 1009.10 1009.14 1008.85 1008.78 1008.84 1008.62 1008.49 1008.39 1008.42 1008.25 1007.79 1007.42 1007.88 1007.70 1008.22 1008.02 1007.84 1007.78 1008.07 1008.18 1008.48 1008.63 1008.57 1008.69 1008.47 1008.42 1008.36 1008.53 1008.76 1008.85 1009.42 1010.17 1010.69 1011.23 1011.12 1010.81 1011.28 1011.31 1011.61
1008.07 1008.83 1008.29 1007.70 1007.38 1006.89 1006.34 1006.90 1007.28 1009.31 1010.08 1010.17 1009.90 1009.84 1009.89 1009.61 1009.46 1009.39 1009.26 1009.66 1009.43 1008.77 1009.46 1009.50 1008.84 1008.61 1008.61 1008.53 1008.47 1008.42 1008.81 1008.91 1008.87 1008.79 1008.93 1008.96 1009.31 1009.53 1009.88 1010.23 1009.81 1010.75 1011.20 1011.12 1010.82 1010.78 1011.11 1011.12 1011.12
1008.50 1008.11 1009.00 1009.37 1009.08 1008.46 1007.88 1007.92 1010.28 1010.94 1011.47 1011.43 1011.16 1011.07 1010.83 1010.42 1010.16 1010.07 1009.98 1010.30 1010.29 1010.77 1010.70 1010.60 1010.13 1009.48 1009.59 1009.18 1008.96 1008.96 1009.09 1009.17 1009.16 1009.17 1009.58 1009.63 1009.95 1010.11 1010.47 1010.70 1010.42 1011.66 1011.01 1011.16 1011.07 1010.88 1010.73 1010.70 1010.95
1009.85 1009.88 1010.15 1009.96 1009.51 1009.50 1009.92 1009.87 1011.62 1012.02 1012.23 1012.39 1012.14 1012.00 1011.80 1011.45 1011.14 1010.98 1011.00 1011.04 1011.11 1010.94 1011.38 1011.59 1011.40 1011.15 1010.81 1009.97 1009.67 1009.50 1009.52 1009.33 1009.27 1009.49 1009.68 1009.64 1009.81 1010.29 1010.50 1010.84 1011.24 1010.81 1010.68 1011.10 1011.17 1010.79 1010.44 1010.37 1010.40
Wind_Speed
10 9 5 7 10 8 8 6 5 3 3 0 3 6 9 10 8 7 3 11 16 19 20 20 16 16 15 14 15 15 15 15 14 14 14 14 14 13 12 11 11 10 10 9 9 9 8 8 8
3 4 7 6 9 6 9 6 4 5 6 4 4 6 6 4 4 6 9 10 16 19 19 19 17 16 16 15 14 15 15 14 14 14 14 13 13 12 11 11 10 10 10 9 9 8 8 7 7
6 6 8 7 4 9 7 8 11 6 3 7 4 2 6 4 3 3 7 14 19 19 19 18 17 16 16 16 15 14 14 15 15 15 13 13 12 11 11 10 9 9 9 9 8 6 6 5 5
5 7 6 11 4 10 6 10 9 6 5 5 5 7 4 3 2 3 14 16 18 18 19 21 18 18 17 16 15 15 15 14 14 14 13 12 12 11 10 9 9 9 8 8 6 4 4 3 2
7 7 9 6 1 2 5 10 9 10 3 2 2 3 2 5 6 9 14 16 17 18 17 19 18 18 17 17 16 15 14 13 12 13 12 12 11 10 9 8 8 8 7 6 4 3 2 1 0
9 5 10 9 5 2 4 9 13 11 3 3 4 3 3 7 8 9 12 14 16 16 16 18 16 16 16 16 15 14 13 13 12 12 11 11 10 9 8 7 7 7 6 5 4 3 2 2 2
12 8 12 5 5 5 5 11 11 12 8 4 4 7 6 8 10 10 12 11 13 15 15 16 18 15 13 13 13 12 12 12 11 10 9 9 9 8 8 7 6 6 6 5 4 4 4 4 4
9 7 14 9 7 4 4 11 9 10 8 2 4 4 4 11 12 12 12 11 12 14 15 15 16 17 15 15 14 12 11 11 10 10 9 9 8 8 8 6 9 8 8 7 7 6 6 6 6
5 9 10 12 7 4 5 12 10 9 9 5 4 5 6 13 14 13 13 12 11 12 15 14 16 16 15 15 14 12 11 11 10 10 10 9 9 11 11 9 6 10 9 9 8 8 8 8 11
9 8 10 6 8 11 12 12 13 11 7 7 4 6 7 12 14 15 15 13 14 16 15 14 14 14 14 10 11 12 12 11 11 11 11 10 10 8 7 3 9 9 11 10 10 11 11 11 10
4 10 6 8 8 11 13 13 7 12 12 3 9 3 11 13 13 14 14 14 16 16 13 15 14 13 13 11 8 7 8 8 8 12 10 9 8 8 8 7 8 9 15 10 13 12 11 13 8
8 3 5 7 4 9 11 12 13 13 15 13 8 9 10 13 14 14 14 14 15 16 16 15 15 13 13 8 9 9 8 8 8 10 11 8 7 8 7 6 7 6 6 8 7 7 8 8 8
8 3 6 9 10 11 10 13 12 16 14 14 15 7 10 12 13 12 12 12 14 14 15 15 14 14 12 13 9 9 9 9 9 9 10 10 9 8 8 7 8 7 7 6 7 7 6 7 9
3 10 12 9 9 7 8 11 4 9 11 13 12 12 12 12 13 12 13 13 13 13 14 15 15 15 15 13 14 9 9 10 9 9 10 12 10 8 9 9 9 9 7 4 4 0 3 5 9
9 13 3 6 1 0 8 11 3 12 10 8 7 8 8 9 10 14 14 15 15 14 14 15 16 16 16 16 13 11 10 10 10 10 12 13 13 12 11 10 10 9 4 3 3 6 7 5 6
9 6 7 9 5 3 9 3 11 10 9 6 5 7 7 7 11 13 15 15 16 16 18 17 14 17 18 16 13 11 11 11 10 10 10 15 15 13 11 10 9 2 3 3 5 5 3 4 6
6 4 2 5 5 5 4 9 10 8 6 5 6 5 6 9 12 13 15 16 17 17 17 19 19 20 18 16 13 12 12 11 11 11 11 14 15 15 13 10 8 7 4 7 2 3 2 7 9
5 0 2 2 7 9 4 6 9 7 6 5 8 8 8 9 12 7 14 16 17 17 17 17 15 16 14 11 10 11 12 12 12 12 13 16 13 15 13 10 8 11 8 7 4 3 5 4 9
4 3 3 2 4 9 6 5 10 9 9 10 10 9 11 13 15 12 11 11 17 17 17 15 15 13 11 11 12 10 10 11 12 12 14 13 5 9 11 12 11 11 8 6 5 4 7 5 5
3 5 5 6 3 8 6 7 13 12 14 14 15 15 14 13 12 10 10 10 11 15 15 15 15 15 15 13 10 3 10 11 10 2 5 7 6 17 12 8 10 12 7 6 4 5 5 6 6
3 7 8 8 9 3 6 11 8 8 14 16 17 17 17 15 14 14 13 6 7 9 13 14 15 14 13 14 8 5 1 9 6 7 7 4 2 4 3 7 9 11 9 11 10 9 9 6 4
2 6 5 6 9 6 7 8 11 10 16 18 19 19 19 19 19 18 16 15 10 6 3 6 9 10 11 12 11 8 4 8 7 7 7 5 2 4 8 10 8 11 9 11 10 9 10 8 6
8 5 5 4 2 7 4 6 14 15 14 16 19 20 20 19 18 19 20 18 14 11 8 5 0 6 8 8 9 8 8 5 2 3 6 7 9 10 8 7 10 11 9 8 7 9 10 6 3
3 8 6 6 6 5 3 9 12 10 14 15 16 18 20 20 21 21 19 17 17 14 12 9 8 3 6 7 8 8 7 8 8 9 6 7 8 7 11 12 11 10 10 8 6 8 7 7 9
8 8 3 3 1 4 2 7 8 10 13 14 15 17 19 20 21 22 23 20 18 16 12 10 7 7 7 10 9 8 8 7 7 5 4 3 4 5 8 8 8 8 8 7 6 5 9 9 8
6 7 7 5 5 8 7 1 8 8 12 13 15 16 18 20 19 21 22 20 19 16 14 9 9 5 7 6 8 7 7 1 5 3 4 5 5 6 2 5 5 5 6 5 5 7 8 7 6
4 4 5 8 6 9 3 8 5 9 13 16 18 20 21 20 20 21 21 21 19 16 16 13 6 4 5 7 6 6 6 7 6 7 7 7 6 4 5 7 9 8 8 8 11 6 6 4 5
8 3 5 4 6 9 6 8 5 11 15 16 18 18 18 18 18 19 19 21 19 18 14 11 9 8 7 6 7 8 6 7 7 6 6 7 6 6 7 6 6 3 4 7 5 5 6 5 6
5 2 2 5 5 9 10 4 5 8 10 12 13 14 15 17 17 18 18 19 18 18 15 12 12 9 7 9 12 10 7 7 7 8 7 7 7 6 6 6 5 4 5 3 5 4 5 6 7
3 3 5 6 8 9 7 8 5 6 9 9 10 11 13 13 16 17 17 17 18 18 15 11 10 11 12 12 12 8 6 5 6 8 8 8 9 6 5 4 5 4 3 2 4 6 6 7 8
Wind_Direction
172 204 249 241 243 242 99 104 4 307 241 358 347 289 347 327 338 8 117 160 159 151 152 162 161 159 157 154 152 147 145 142 144 147 150 154 153 158 158 161 161 155 150 147 138 137 138 131 124
201 224 227 274 265 211 90 26 342 336 350 282 276 260 263 322 14 96 138 160 157 148 153 163 161 160 160 160 157 149 146 147 151 154 158 160 157 161 162 162 162 156 156 151 147 148 139 127 123
238 260 276 301 273 31 41 25 5 352 305 227 267 247 326 16 91 57 99 162 166 155 158 148 163 163 164 165 162 155 155 157 161 163 164 164 162 165 162 165 163 161 164 156 159 147 130 128 129
247 202 214 259 50 84 32 7 356 356 154 228 282 275 156 37 8 60 146 159 159 164 161 138 165 167 168 168 169 163 164 165 167 166 166 167 168 169 165 166 171 167 175 170 160 153 137 123 117
233 255 259 246 133 25 14 6 341 353 334 281 233 352 285 105 103 123 149 162 166 164 162 157 168 170 169 171 173 171 169 170 171 170 172 173 175 174 174 175 183 182 185 181 169 172 176 139 167
252 273 244 219 143 12 11 6 340 349 37 18 235 309 43 105 136 135 154 165 169 163 164 158 169 172 173 175 176 176 173 173 174 176 175 179 181 180 184 187 195 192 202 200 200 205 228 245 265
255 247 260 300 279 273 2 345 338 336 333 46 350 293 76 161 121 141 158 156 165 168 176 162 174 178 179 179 178 179 177 177 178 180 176 184 191 192 195 199 203 211 214 223 227 231 239 247 258
275 276 256 228 250 266 2 321 351 334 345 24 285 323 89 121 150 148 152 163 177 176 184 173 184 182 190 184 184 187 183 183 185 186 188 191 201 209 212 213 211 221 222 224 229 234 241 247 250
255 251 244 237 247 275 332 332 341 330 290 288 279 319 64 139 156 158 158 167 175 183 189 190 187 186 199 194 175 189 196 197 197 196 203 194 221 196 204 212 149 205 228 232 234 237 239 242 236
237 240 248 353 297 290 317 320 322 314 300 290 209 137 143 158 175 175 173 175 184 188 193 195 197 200 198 205 186 199 199 207 207 207 202 216 217 228 245 182 186 223 232 236 234 236 236 233 252
181 265 8 274 262 293 303 299 311 292 287 344 322 344 175 186 192 193 187 184 189 190 192 198 193 199 212 204 198 200 207 205 207 217 216 216 222 214 213 230 207 220 209 228 201 210 223 234 253
262 252 276 295 284 287 288 313 289 286 285 311 295 302 183 199 199 202 193 191 189 189 196 195 192 198 214 215 208 210 211 206 215 208 209 228 217 225 238 228 233 218 227 223 234 246 243 269 262
250 265 280 269 281 285 286 265 278 281 287 280 278 251 216 212 209 206 199 199 197 195 192 200 199 198 204 216 220 220 218 209 221 218 207 225 224 229 229 234 240 240 226 228 245 253 268 273 255
347 294 284 280 281 265 285 304 251 344 331 293 262 254 244 230 216 198 199 203 203 209 200 201 201 198 207 211 221 217 225 228 223 226 220 212 233 227 233 227 230 231 222 229 252 287 295 308 298
280 280 236 194 201 226 308 219 328 345 328 291 255 254 265 251 212 218 202 204 203 203 214 206 207 200 208 210 213 219 229 223 231 226 225 223 217 224 236 231 232 221 191 239 107 44 36 355 330
259 247 193 103 352 85 300 3 23 349 336 299 283 282 267 239 229 216 225 211 209 211 199 209 209 206 206 217 212 220 218 230 233 232 232 220 225 225 215 233 227 126 93 74 60 62 40 295 272
203 95 15 152 59 325 315 358 14 349 336 321 309 300 262 251 232 226 225 228 215 213 215 204 205 215 208 210 222 223 232 226 236 237 235 228 224 220 215 222 186 142 175 134 210 94 236 257 259
22 325 101 351 27 328 308 350 35 359 319 310 319 316 303 285 271 267 219 234 239 221 216 220 213 218 218 216 219 227 221 230 228 228 231 230 223 219 212 211 165 187 170 144 192 201 241 214 258
325 312 321 18 42 306 20 319 37 37 31 28 8 348 322 309 316 308 289 264 227 240 222 218 220 213 212 211 222 227 261 231 232 231 234 252 267 249 201 201 180 182 174 150 174 225 242 269 235
250 283 43 253 29 295 5 77 79 59 59 52 35 26 10 350 354 350 323 265 233 235 244 222 223 214 209 215 223 129 282 278 265 310 268 217 233 229 243 208 179 171 157 145 140 201 218 199 168
142 353 6 346 316 219 278 105 79 75 62 33 29 25 24 21 14 21 17 344 258 228 234 232 226 225 224 237 214 239 175 221 270 262 259 307 33 271 168 235 205 158 173 167 181 197 214 223 181
99 23 325 320 299 80 307 115 78 32 38 34 29 26 21 22 24 31 31 34 24 346 268 252 255 233 228 227 244 236 233 254 296 321 9 352 229 238 173 207 219 173 172 182 192 191 227 208 185
40 345 334 312 153 241 73 276 76 41 19 20 20 25 22 25 32 31 22 36 50 48 27 100 33 236 228 215 226 235 242 251 293 248 216 196 165 168 174 173 188 190 188 224 195 187 192 180 204
318 259 205 222 207 189 29 304 81 25 11 10 18 24 21 19 26 32 26 34 32 35 56 59 77 176 179 188 190 201 208 218 219 223 232 206 180 188 177 182 184 197 196 210 157 170 167 199 217
223 283 252 222 265 40 34 255 52 29 22 16 15 21 21 17 20 21 23 21 26 30 41 58 67 113 149 169 174 179 190 205 230 244 284 268 220 225 209 188 174 171 177 165 141 158 195 203 222
36 330 360 309 347 359 141 69 81 48 29 20 24 25 24 21 21 16 22 16 16 23 23 48 74 95 123 151 150 158 160 86 20 20 286 268 263 310 334 111 128 142 135 148 159 199 211 200 215
73 15 6 301 202 260 73 114 163 38 25 16 16 19 20 19 21 21 25 17 13 14 30 34 49 73 84 82 59 57 44 28 27 10 348 336 1 59 95 119 127 143 169 184 189 212 211 212 221
15 61 263 230 292 307 294 278 63 26 10 6 11 13 15 18 23 25 30 27 17 16 55 14 11 38 63 48 16 7 28 39 39 36 32 28 38 62 80 51 76 102 183 206 187 181 197 230 250
314 244 334 291 298 309 300 358 39 24 15 360 9 9 13 17 21 25 28 29 32 28 16 7 358 10 27 355 355 3 19 38 64 70 82 95 91 89 88 95 146 198 193 198 212 257 288 256 259
315 24 354 315 318 310 290 291 50 26 23 6 11 16 22 20 24 27 25 31 24 25 29 12 359 354 336 345 344 356 3 55 74 85 86 91 102 99 96 118 209 202 193 229 259 259 285 270 272